Regional Weather Roundup
Issued by NWS

Home | Current Version | Previous Version | Graphics & Text | Print | Product List | Glossary On
Versions: 1 2 3 4 5 6 7 8 9 10 11 12 13 14 15 16 17 18 19 20 21 22 23 24 25 26 27 28 29 30 31 32 33 34 35 36 37 38 39 40 41 42 43 44 45 46 47 48 49 50
000
ASUS43 KDTX 181810
RWRMI
MICHIGAN HOURLY REGIONAL WEATHER ROUNDUP
NATIONAL WEATHER SERVICE DETROIT/PONTIAC MI
100 PM EST THU DEC 18 2014

NOTE: "FAIR" INDICATES FEW OR NO CLOUDS BELOW 12,000 FEET WITH NO
SIGNIFICANT WEATHER AND/OR OBSTRUCTION TO VISIBILITY.

MIZ047>049-052>055-059>063-066>070-074>076-081>083-181900-
SOUTHEAST LOWER MICHIGAN

CITY           SKY/WX    TMP DP  RH WIND       PRES   REMARKS
ADRIAN         CLOUDY    31  25  78 W8        30.20F WCI  23
6HR MIN TEMP:  29; 6HR MAX TEMP:  31;

ALMA           CLOUDY    30  27  86 NW5       30.18F WCI  25
ANN ARBOR      CLOUDY    32  26  78 NW9       30.17F WCI  24
BAD AXE        CLOUDY    27  24  89 W9        30.17F WCI  18
6HR MIN TEMP:  26; 6HR MAX TEMP:  27;

CARO           CLOUDY    29  26  89 NW7       30.17F FOG     WCI  22
DETROIT CITY   CLOUDY    34  27  75 W7        30.17F WCI  28
6HR MIN TEMP:  32; 6HR MAX TEMP:  34;

DETROIT        CLOUDY    32  27  81 W9        30.18F WCI  24
6HR MIN TEMP:  30; 6HR MAX TEMP:  32; 6HR PCP: TRACE;

FLINT          CLOUDY    32  29  88 N7        30.17F FOG     WCI  26
6HR MIN TEMP:  31; 6HR MAX TEMP:  33; 6HR PCP: TRACE;

GROSSE ILE     CLOUDY    34  28  80 W7        30.17F WCI  28
HILLSDALE      CLOUDY    31  28  87 NW9       30.17F WCI  23
6HR MIN TEMP:  28; 6HR MAX TEMP:  31;

HOWELL         CLOUDY    31  29  92 W6        30.16F WCI  25
6HR MIN TEMP:  29; 6HR MAX TEMP:  31;


CITY           SKY/WX    TMP DP  RH WIND       PRES   REMARKS
JACKSON        CLOUDY    30  27  88 W8        30.17F WCI  22
6HR MIN TEMP:  28; 6HR MAX TEMP:  30;

LAMBERTVILLE   CLOUDY    32  27  80 W8        30.20F WCI  25
LANSING        CLOUDY    32  28  85 NW7       30.18F WCI  26
6HR MIN TEMP:  29; 6HR MAX TEMP:  32; 6HR PCP: TRACE;

LAPEER         CLOUDY    29  28  96 N3        30.16F FOG
MASON          CLOUDY    31  28  90 W9        30.17F WCI  23
MONROE         CLOUDY    32  27  80 W8        30.17F WCI  25
MT. CLEMENS    CLOUDY    34  28  80 W9        30.14F WCI  26
6HR MIN TEMP:  30; 6HR MAX TEMP:  33; 6HR PCP: TRACE;

PONTIAC        CLOUDY    31  28  89 NW7       30.14F WCI  24
6HR MIN TEMP:  29; 6HR MAX TEMP:  31; 6HR PCP: TRACE;

PORT HOPE        N/A     27  23  85 W7        30.16S WCI  19
6HR MIN TEMP:  27; 6HR MAX TEMP:  30;

PORT HURON     CLOUDY    28  27  93 NW7       30.16F WCI  21
TRI CITIES     CLOUDY    30  24  78 N6        30.19F WCI  24
6HR MIN TEMP:  30; 6HR MAX TEMP:  32;

TROY           CLOUDY    33  29  84 W6        30.17F WCI  28
SAGINAW HB     CLOUDY    30  30 100 NE3       30.18F FOG
$$
MIZ043>046-050>051-056>058-064>065-071>073-077>080-181900-
SOUTHWEST LOWER MICHIGAN

CITY           SKY/WX    TMP DP  RH WIND       PRES   REMARKS
BATTLE CREEK   CLOUDY    31  25  78 W10       30.19F WCI  22
6HR MIN TEMP:  30; 6HR MAX TEMP:  32;

BENTON HARBOR  CLOUDY    28  23  81 SW9       30.24F WCI  19
6HR MIN TEMP:  27; 6HR MAX TEMP:  29;

BIG RAPIDS     CLOUDY    28  26  92 N6        30.17F WCI  22
6HR MIN TEMP:  28; 6HR MAX TEMP:  29;

COLDWATER      CLOUDY    29  25  86 W12       30.20F WCI  19
6HR MIN TEMP:  28; 6HR MAX TEMP:  30;

FREMONT        CLOUDY    31  25  78 NE6       30.18F WCI  25
HOLLAND        LGT SNOW  34  29  82 SW14      30.20F WCI  25
6HR MIN TEMP:  33; 6HR MAX TEMP:  34; 6HR PCP: TRACE;

GRAND RAPIDS   CLOUDY    31  28  89 W8        30.19F FOG     WCI  23
6HR MIN TEMP:  30; 6HR MAX TEMP:  32; 6HR PCP: TRACE;

IONIA          CLOUDY    32  28  85 N5        30.17F WCI  28
KALAMAZOO      CLOUDY    31  24  75 W10       30.21F WCI  22
6HR MIN TEMP:  29; 6HR MAX TEMP:  31; 6HR PCP: TRACE;

LUDINGTON      CLOUDY    31  25  80 CALM      30.21F
6HR MIN TEMP:  31; 6HR MAX TEMP:  31;

MARSHALL       CLOUDY    30  26  82 W8        30.18F WCI  23
MOUNT PLEASANT CLOUDY    30  25  83 CALM      30.18F
6HR MIN TEMP:  29; 6HR MAX TEMP:  30;

MUSKEGON       CLOUDY    34  26  72 CALM      30.20F
6HR MIN TEMP:  32; 6HR MAX TEMP:  34; 6HR PCP:  0.01;

SOUTH HAVEN    CLOUDY    31  26  83 W9        30.23F HAZE    WCI  23
$$
MIZ016>042-181900-
NORTHERN LOWER MICHIGAN

CITY           SKY/WX    TMP DP  RH WIND       PRES   REMARKS
ALPENA         CLOUDY    24  19  81 N10       30.19F WCI  14
6HR MIN TEMP:  23; 6HR MAX TEMP:  24;

BEAVER ISLAND  SUNNY     24  11  56 N5        30.24F WCI  18
6HR MIN TEMP:  21; 6HR MAX TEMP:  24;

BELLAIRE       PTSUNNY   26  19  74 CALM      30.22F
6HR MIN TEMP:  24; 6HR MAX TEMP:  26;

CADILLAC       CLOUDY    26  22  84 NW6       30.15F WCI  20
CHARLEVOIX     SUNNY     24  15  69 CALM      30.25S
6HR MIN TEMP:  21; 6HR MAX TEMP:  25;

FRANKFORT      PTSUNNY   28  23  79 NE3       30.22F
GAYLORD        MOSUNNY   21  15  78 CALM      30.16F
6HR MIN TEMP:  18; 6HR MAX TEMP:  22;

GRAYLING       CLOUDY    24  20  84 CALM      30.17F
HARBOR SPRINGS SUNNY     24  13  63 E3        30.21F
HOUGHTON LAKE  CLOUDY    25  20  81 VRB3      30.16F
6HR MIN TEMP:  23; 6HR MAX TEMP:  25;

MANISTEE       CLOUDY    28  19  69 N8        30.22F WCI  20
OSCODA         CLOUDY    26  21  83 NW8       30.18S WCI  17
PELLSTON       SUNNY     22  14  71 N7        30.22F WCI  13
6HR MIN TEMP:  15; 6HR MAX TEMP:  22;

ROGERS CITY    CLOUDY    24  21  88 N6        30.21F WCI  17
TRAVERSE CITY  CLOUDY    29  23  78 CALM      30.20F
6HR MIN TEMP:  28; 6HR MAX TEMP:  29;

$$
MIZ007>008-015-181900-
EASTERN UPPER MICHIGAN

CITY           SKY/WX    TMP DP  RH WIND       PRES   REMARKS
KINROSS        SUNNY     21  10  63 N8        30.22F WCI  12
6HR MIN TEMP:  10; 6HR MAX TEMP:  21;

MACKINAC ISLAN SUNNY     22  11  63 N7        30.22F WCI  14
6HR MIN TEMP:  16; 6HR MAX TEMP:  22;

NEWBERRY       SUNNY     22  15  73 N8        30.23F WCI  13
6HR MIN TEMP:  13; 6HR MAX TEMP:  22;

S. S. MARIE    SUNNY     23   2  40 VRB3      30.24
6HR MIN TEMP:  11; 6HR MAX TEMP:  23;

MUNISING         N/A     30  19  63 NE15      30.26F WCI  19
6HR MIN TEMP:  27; 6HR MAX TEMP:  31;

$$
MIZ004>006-011>014-085-181900-
CENTRAL UPPER MICHIGAN

CITY           SKY/WX    TMP DP  RH WIND       PRES   REMARKS
MANISTIQUE     SUNNY     25  13  61 N7        30.25F WCI  17
6HR MIN TEMP:  18; 6HR MAX TEMP:  25;

ESCANABA       MOSUNNY   27  12  54 NE8       30.25F WCI  18
6HR MIN TEMP:  19; 6HR MAX TEMP:  27;

MENOMINEE      SUNNY     28  16  59 E5        30.25F WCI  23
6HR MIN TEMP:  25; 6HR MAX TEMP:  28;

SAWYER-GWINN   MOSUNNY   25  18  74 N10       30.24F WCI  15
$$
MIZ001>003-009>011-084-181900-
WESTERN UPPER MICHIGAN

CITY           SKY/WX    TMP DP  RH WIND       PRES   REMARKS
IRON MOUNTAIN  MOSUNNY   25  17  72 N6        30.23F WCI  18
6HR MIN TEMP:  16; 6HR MAX TEMP:  25;

HOUGHTON       SUNNY     24  17  74 E3        30.26F
6HR MIN TEMP:   0; 6HR MAX TEMP:  25; 6HR PCP: TRACE;

COPPER HARBOR    N/A     29  17  61 VRB3      30.30F
6HR MIN TEMP:  26; 6HR MAX TEMP:  30;

IRONWOOD       MOSUNNY   23  16  74 E3        30.24F
6HR MIN TEMP:  18; 6HR MAX TEMP:  23;

$$

ABBREVIATIONS USED IN REMARKS
   TC - TEMPERATURE IN CELSIUS
  WCI - WIND CHILL INDEX
   HX - HEAT INDEX
  VSB - VISIBILITY



USA.gov is the U.S. government's official web portal to all federal, state and local government web resources and services.